TimeAST,TemperatureF,Dew PointF,Humidity,Sea Level PressureIn,VisibilityMPH,Wind Direction,Wind SpeedMPH,Gust SpeedMPH,PrecipitationIn,Events,Conditions,WindDirDegrees,DateUTC
12:00 AM,82.4,77.0,84,29.77,-9999.0,North,-9999.0,-,N/A,,Unknown,0,2012-10-22 04:00:00
1:00 AM,82.4,77.0,84,29.74,-9999.0,North,-9999.0,-,N/A,,Unknown,0,2012-10-22 05:00:00
2:00 AM,82,77,80,,,Calm,Calm,,,,,,2012-10-22 06:00:00
2:00 AM,82.4,77.0,84,29.71,-9999.0,North,-9999.0,-,N/A,,Unknown,0,2012-10-22 06:00:00
3:00 AM,82.4,77.0,84,29.71,-9999.0,North,-9999.0,-,N/A,,Unknown,0,2012-10-22 07:00:00
4:00 AM,82.4,78.8,89,29.71,-9999.0,North,-9999.0,-,N/A,,Unknown,0,2012-10-22 08:00:00
5:00 AM,82,78,84,,,Calm,Calm,,,,,,2012-10-22 09:00:00
5:00 AM,82.4,78.8,89,29.74,-9999.0,North,-9999.0,-,N/A,,Unknown,0,2012-10-22 09:00:00
6:00 AM,75.2,73.4,94,29.80,-9999.0,North,-9999.0,-,N/A,Rain,Heavy Rain,0,2012-10-22 10:00:00
7:00 AM,75.2,75.2,100,29.77,-9999.0,North,-9999.0,-,N/A,,Unknown,0,2012-10-22 11:00:00
8:00 AM,77,76,98,29.79,9,ESE,4.6,,,Rain,Light Rain,110,2012-10-22 12:00:00
8:00 AM,77.0,77.0,100,29.77,6.2,ESE,4.6,-,N/A,Rain,Light Rain,110,2012-10-22 12:00:00
9:00 AM,77.0,77.0,100,29.83,6.2,East,2.3,-,N/A,Rain,Light Rain,80,2012-10-22 13:00:00
10:00 AM,78.8,78.8,100,29.83,6.2,East,5.8,-,N/A,Rain,Light Rain,100,2012-10-22 14:00:00
12:00 PM,82.4,78.8,89,29.80,6.2,East,9.2,-,N/A,,Scattered Clouds,100,2012-10-22 16:00:00
1:00 PM,84.2,78.8,84,29.77,6.2,East,13.8,-,N/A,,Scattered Clouds,100,2012-10-22 17:00:00
2:00 PM,84,78,79,29.76,16,ESE,15.0,,,,Partly Cloudy,110,2012-10-22 18:00:00
2:00 PM,84.2,78.8,84,29.74,6.2,ESE,15.0,-,N/A,,Scattered Clouds,110,2012-10-22 18:00:00
3:00 PM,84.2,77.0,79,29.74,6.2,East,19.6,-,N/A,,Scattered Clouds,100,2012-10-22 19:00:00
4:00 PM,84.2,77.0,79,29.71,6.2,East,17.3,-,N/A,,Scattered Clouds,100,2012-10-22 20:00:00
5:00 PM,85,78,74,29.73,16,East,17.3,,,,Scattered Clouds,100,2012-10-22 21:00:00
5:00 PM,84.2,78.8,84,29.71,6.2,East,17.3,-,N/A,,Partly Cloudy,100,2012-10-22 21:00:00
6:00 PM,82.4,77.0,84,29.71,6.2,East,16.1,-,N/A,,Scattered Clouds,100,2012-10-22 22:00:00
7:00 PM,82.4,77.0,84,29.74,6.2,East,16.1,-,N/A,,Scattered Clouds,100,2012-10-22 23:00:00
8:00 PM,82.4,77.0,84,29.74,6.2,East,18.4,-,N/A,,Scattered Clouds,100,2012-10-23 00:00:00
9:00 PM,82.4,77.0,84,29.80,-9999.0,North,-9999.0,-,N/A,,Unknown,0,2012-10-23 01:00:00
10:00 PM,82.4,77.0,84,29.80,-9999.0,North,-9999.0,-,N/A,,Unknown,0,2012-10-23 02:00:00
11:00 PM,82,77,82,,6,ESE,22.4,,,,Clear,110,2012-10-23 03:00:00
11:00 PM,82.4,77.0,84,29.80,-9999.0,North,-9999.0,-,N/A,,Unknown,0,2012-10-23 03:00:00